Regional Weather Roundup
Issued by NWS

Home | Current Version | Previous Version | Text Only | Print | Product List | Glossary On
Versions: 1 2 3 4 5 6 7 8 9 10 11 12 13 14 15 16 17 18 19 20 21 22 23 24 25 26 27 28 29 30 31 32 33 34 35 36 37 38 39 40 41 42 43 44 45 46 47 48 49 50
000
ASUS44 KFWD 131803
RWRTX
NORTH TEXAS HOURLY WEATHER ROUNDUP
NATIONAL WEATHER SERVICE FORT WORTH TX
1200 PM CST WED DEC 13 2017

NOTE: "FAIR" INDICATES FEW OR NO CLOUDS BELOW 12,000 FEET WITH NO
SIGNIFICANT WEATHER AND/OR OBSTRUCTIONS TO VISIBILITY.

TXZ118-119-131900-
DALLAS/FORT WORTH METROPLEX

CITY           SKY/WX    TMP DP  RH WIND       PRES   REMARKS
DFW AIRPORT    MOSUNNY   68  20  16 SW12      29.98F
6HR MIN TEMP:  34; 6HR MAX TEMP:  68;

DALLAS LOVE    MOSUNNY   64  28  25 SW5       29.99F
6HR MIN TEMP:  39; 6HR MAX TEMP:  64;

FTW MEACHAM    SUNNY     71  21  15 SW18G24   29.99F
6HR MIN TEMP:  36; 6HR MAX TEMP:  71;

DAL-EXECUTIVE  SUNNY     66  26  22 SW12G18   29.99F
6HR MIN TEMP:  43; 6HR MAX TEMP:  66;

FTW-ALLIANCE   MOSUNNY   70  21  15 SW13      29.98F
6HR MIN TEMP:  36; 6HR MAX TEMP:  70;

FTW-NAS-JRB    MOSUNNY   62  17  17 SW17      30.00F
FTW-SPINKS     SUNNY     70  21  16 SW17      30.02F
ARLINGTON      SUNNY     68  21  16 S8        30.00F
6HR MIN TEMP:  27; 6HR MAX TEMP:  68;

GRAND PRAIRIE  SUNNY     66  19  16 SW12G21   30.02F
ADDISON        SUNNY     63  23  22 SW9       30.01F
MESQUITE       SUNNY     63  27  25 S9        30.01F
LANCASTER      SUNNY     67  25  20 S12       30.02F
6HR MIN TEMP:  31; 6HR MAX TEMP:  67;

$$

TXZ091>094-102>105-117-120-121-131>134-131900-
NORTH CENTRAL TEXAS

CITY           SKY/WX    TMP DP  RH WIND       PRES   REMARKS
SHRMAN/DENISON SUNNY     65  25  21 SW16G22   29.97F
6HR MIN TEMP:  38; 6HR MAX TEMP:  65;

GAINESVILLE    SUNNY     68  19  15 W16G22    29.98F
6HR MIN TEMP:  27; 6HR MAX TEMP:  68;

BOWIE          SUNNY     66  20  17 W13G20    29.97F
6HR MIN TEMP:  29; 6HR MAX TEMP:  67;

BRIDGEPORT     SUNNY     66  22  19 W15       30.00F
6HR MIN TEMP:  38; 6HR MAX TEMP:  66;

DECATUR        SUNNY     66  19  16 SW14      29.96F
DENTON         SUNNY     69  22  16 W12       29.97F
6HR MIN TEMP:  32; 6HR MAX TEMP:  69;

MCKINNEY       SUNNY     63  24  22 W12       29.99F
6HR MIN TEMP:  29; 6HR MAX TEMP:  63;

BONHAM         SUNNY     63  26  24 SW14G22   29.97F
6HR MIN TEMP:  38; 6HR MAX TEMP:  64;

ROCKWALL       SUNNY     61  29  29 SW13      30.01F
6HR MIN TEMP:  37; 6HR MAX TEMP:  61;

TERRELL        SUNNY     65  25  22 SW10      30.01F
6HR MIN TEMP:  30; 6HR MAX TEMP:  65;

WAXAHACHIE     SUNNY     65  31  28 SW12G17   30.03F
6HR MIN TEMP:  38; 6HR MAX TEMP:  65;

CLEBURNE       SUNNY     66  25  20 SW13G18   30.03F
GRANBURY       SUNNY     71  20  15 SW14G22   30.02F
6HR MIN TEMP:  29; 6HR MAX TEMP:  71;

$$

TXZ083>090-098>101-113>116-127>130-139>142-154-155-131900-
WESTERN NORTH TEXAS

CITY           SKY/WX    TMP DP  RH WIND       PRES   REMARKS
WICHITA FALLS  SUNNY     62  17  17 W10       29.97F
6HR MIN TEMP:  37; 6HR MAX TEMP:  62;

WF-KICKAPOO    SUNNY     61  18  18 NW7       30.01F
6HR MIN TEMP:  38; 6HR MAX TEMP:  61;

VERNON         SUNNY     63   0   8 N10       29.99F
6HR MIN TEMP:  35; 6HR MAX TEMP:  73;

ABILENE        SUNNY     64  22  20 SW15      30.04F
6HR MIN TEMP:  34; 6HR MAX TEMP:  65;

ABILENE-DYESS  SUNNY     68  21  17 SW16G23   30.03F
6HR MIN TEMP:  28; 6HR MAX TEMP:  68;

GRAHAM           N/A     66  22  19 SW12G18   29.99F
6HR MIN TEMP:  27; 6HR MAX TEMP:  66;

BRECKENRIDGE   SUNNY     70  19  14 W9        30.01F
6HR MIN TEMP:  38; 6HR MAX TEMP:  70;

CISCO          SUNNY     66  19  16 W17G25    30.05F
EASTLAND       SUNNY     67  21  17 W14G21    30.03F
6HR MIN TEMP:  21; 6HR MAX TEMP:  67;

RANGER         SUNNY     66  24  20 SW14      30.03F
6HR MIN TEMP:  37; 6HR MAX TEMP:  66;

MINERAL WELLS  SUNNY     68  21  16 SW16      29.98F
6HR MIN TEMP:  27; 6HR MAX TEMP:  68;

STEPHENVILLE   SUNNY     65  22  19 W10       30.06F
6HR MIN TEMP:  34; 6HR MAX TEMP:  65;

COMANCHE       SUNNY     64  26  23 W12G21    30.06F
6HR MIN TEMP:  42; 6HR MAX TEMP:  64;

BROWNWOOD      SUNNY     64  23  20 SW15      30.07F
COLEMAN          N/A     65  24  21 SW14      30.07
$$

TXZ143>147-156>162-174-175-131900-
CENTRAL TEXAS

CITY           SKY/WX    TMP DP  RH WIND       PRES   REMARKS
WACO           SUNNY     62  29  28 SW10      30.08F
6HR MIN TEMP:  31; 6HR MAX TEMP:  62;

WACO-TSTC      SUNNY     64  25  22 S9G20     30.08F
WACO-MCGREGOR  SUNNY     62  31  31 S10       30.08F
6HR MIN TEMP:  29; 6HR MAX TEMP:  62;

HILLSBORO      SUNNY     62  30  30 S13       30.04F
6HR MIN TEMP:  31; 6HR MAX TEMP:  62;

CORSICANA      SUNNY     63  26  24 S16       30.06F
6HR MIN TEMP:  32; 6HR MAX TEMP:  64;

MEXIA          SUNNY     60  29  31 S17G24    30.07F
6HR MIN TEMP:  31; 6HR MAX TEMP:  60;

HEARNE         PTSUNNY   56  33  41 S9        30.14F
6HR MIN TEMP:  29; 6HR MAX TEMP:  56;

CAMERON        MOSUNNY   58  32  37 SW18G28   30.11F
6HR MIN TEMP:  33; 6HR MAX TEMP:  58;

TEMPLE         SUNNY     61  31  32 S13       30.09F
6HR MIN TEMP:  28; 6HR MAX TEMP:  61;

KILLEEN        SUNNY     60  28  30 S8        30.07F
6HR MIN TEMP:  37; 6HR MAX TEMP:  60;

KILLEEN-SKYLRK SUNNY     62  29  28 SW10      30.09F
6HR MIN TEMP:  32; 6HR MAX TEMP:  62;

FORT HOOD      SUNNY     61  28  27 SW12      30.05F
6HR MIN TEMP:  35; 6HR MAX TEMP:  61;

GATESVILLE     SUNNY     61  27  27 SW12      30.09F
HAMILTON       SUNNY     67  22  18 SW13      30.07F
6HR MIN TEMP:  36; 6HR MAX TEMP:  67;

LAMPASAS       SUNNY     60  24  24 SW9       30.07F
6HR MIN TEMP:  36; 6HR MAX TEMP:  61;

$$

TXZ095>097-106>112-122>126-135>138-148>153-164>167-131900-
EAST TEXAS

CITY           SKY/WX    TMP DP  RH WIND       PRES   REMARKS
PARIS          SUNNY     62  28  27 SW15      29.98F
6HR MIN TEMP:  30; 6HR MAX TEMP:  62;

SULPHUR SPRNGS SUNNY     63  26  24 SW13G18   30.01F
6HR MIN TEMP:  37; 6HR MAX TEMP:  63;

MOUNT PLEASANT SUNNY     62  29  29 S13       30.02F
6HR MIN TEMP:  28; 6HR MAX TEMP:  62;

GILMER         SUNNY     58  28  32 S14G23    30.03F
6HR MIN TEMP:  30; 6HR MAX TEMP:  58;

MINEOLA        SUNNY     61  28  29 SW12      30.02F
TYLER          SUNNY     59  28  30 SW10      30.03F
6HR MIN TEMP:  28; 6HR MAX TEMP:  59;

LONGVIEW       SUNNY     59  31  34 SW15      30.05F
6HR MIN TEMP:  31; 6HR MAX TEMP:  60;

MARSHALL       SUNNY     57  25  28 SW12G20   30.06F
6HR MIN TEMP:  26; 6HR MAX TEMP:  57;

ATHENS         SUNNY     59  28  31 S7G16     30.04F
PALESTINE      SUNNY     57  32  37 S12       30.10F
JACKSONVILLE   SUNNY     56  30  36 S10       30.09F
HENDERSON      SUNNY     57  29  34 S9G16     30.08F
6HR MIN TEMP:  26; 6HR MAX TEMP:  57;

CENTER         CLEAR     56  25  30 SW7G16    30.10F
6HR MIN TEMP:  26; 6HR MAX TEMP:  56;

NACOGDOCHES    SUNNY     56  30  37 SW9       30.11F
6HR MIN TEMP:  24; 6HR MAX TEMP:  56;

LUFKIN         CLOUDY    54  31  41 SW13      30.12F
6HR MIN TEMP:  28; 6HR MAX TEMP:  54;

$$

SUPPLEMENTAL OBSERVATIONS (NWS FORT WORTH AREA)

CITY           SKY/WX    TMP DP  RH WIND       PRES   REMARKS
$$

SUPPLEMENTAL OBSERVATIONS (NWS NORMAN AREA)

CITY           SKY/WX    TMP DP  RH WIND       PRES   REMARKS
GOODLETT         N/A     63  13  14 N13G20    30.00F
ODELL



USA.gov is the U.S. government's official web portal to all federal, state and local government web resources and services.